Location: Castifao
(42.5040°N, 9.1124°E)
Time: 04:35:27
(UTC+00:00)

YAOGAN 1 - Pass Details

Date: 23 January 2020
Orbit: 619 x 621 km, 98.0° (Epoch: 16 February)

Event Time Altitude Azimuth Distance (km) Brightness Sun altitude
Rises 17:18:56 0° 146° (SE) 2,885 5.8 -10.1°
Reaches altitude 10° 17:21:13 10° 138° (SE) 1,983 4.9 -10.5°
Maximum altitude 17:25:12 38° 71° (ENE) 956 3.0 -11.2°
Drops below altitude 10° 17:29:13 10° 3° (N) 1,996 5.0 -11.9°
Sets 17:31:31 0° 356° (N) 2,907 5.9 -12.3°
